Regional Weather Roundup
Issued by NWS

Home | Current Version | Previous Version | Text Only | Print | Product List | Glossary On
Versions: 1 2 3 4 5 6 7 8 9 10 11 12 13 14 15 16 17 18 19 20 21 22 23 24 25 26 27 28 29 30 31 32 33 34 35 36 37 38 39 40 41 42 43 44 45 46 47 48 49 50
000
ASUS43 KLSX 010959
RWRMO

WEATHER SUMMARY FOR MISSOURI
NATIONAL WEATHER SERVICE SPRINGFIELD MO
500 AM CDT WED OCT 01 2014

NOTE: "FAIR" INDICATES FEW OR NO CLOUDS BELOW 12,000 FEET WITH NO
       SIGNIFICANT WEATHER AND/OR OBSTRUCTIONS TO VISIBILITY.
       CURRENT SKY AND/OR WEATHER CONDITIONS ARE NOT AVAILABLE FOR
       CHILLICOTHE AND FARMINGTON.

MOZ001>031-035>038-043-044-053-054-011100-
...NORTHERN AND WESTERN MISSOURI...

CITY           SKY/WX    TMP DP  RH WIND       PRES   REMARKS
KANSAS CTY INT LGT RAIN  67  61  81 S15       29.74R
KANSAS C DTWN  MOCLDY    72  59  63 S13G24    29.73S
LEE`S SUMMIT   PTCLDY    67  58  72 S9        29.76S
ST JOSEPH      TSTM      65  65 100 CALM      29.78R FOG
CHILLICOTHE      N/A     68  57  68 SE6       29.78F
KIRKSVILLE     PTCLDY    60  32  34 E8        29.84S HAZE

$$
MOZ066>068-077>081-088>096-101>105-011100-
...SOUTHWEST MISSOURI...

CITY           SKY/WX    TMP DP  RH WIND       PRES   REMARKS
SPRINGFIELD    PTCLDY    65  56  72 SE13      29.83F
JOPLIN         PTCLDY    70  59  68 S12       29.80S

$$
MOZ032>034-039>042-045>050-055>058-069>072-011100-
...CENTRAL MISSOURI...

CITY           SKY/WX    TMP DP  RH WIND       PRES   REMARKS
COLUMBIA       CLEAR     62  55  77 SE8       29.85S
JEFFERSON CITY CLEAR     61  54  77 E7        29.84S
ROLLA          CLEAR     63  53  70 S8        29.86S
SEDALIA        PTCLDY    67  54  63 S12       29.81F
OSAGE BEACH    CLEAR     61  52  72 SE5       29.84F

$$
MOZ051-052-059>065-011100-
...EAST CENTRAL MISSOURI...

CITY           SKY/WX    TMP DP  RH WIND       PRES   REMARKS
ST LOUIS INTL  CLEAR     63  59  87 E8        29.91R
SPIRIT OF STL  CLEAR    N/A N/A N/A CALM      29.89R
ST CHARLES     CLEAR     60  57  89 E8        29.90R

$$
MOZ072>076-082>087-097>100-106>115-011100-
...SOUTH CENTRAL AND SOUTHEAST MISSOURI...

CITY           SKY/WX    TMP DP  RH WIND       PRES   REMARKS
CAPE GIRARDEAU CLEAR     56  55  97 CALM      29.90R FOG
FARMINGTON     CLEAR     54  52  94 CALM      29.92S
POPLAR BLUFF   CLEAR     57  54  89 CALM      29.89R
WEST PLAINS    CLEAR     55  51  86 CALM      29.91R

$$


USA.gov is the U.S. government's official web portal to all federal, state and local government web resources and services.